Year,Month,Day,Hour,Minute,Value (Times are PST for temperature in C)
2014,06,25,08,35,9.10
2014,06,25,08,36,9.10
2014,06,25,08,37,9.10
2014,06,25,08,38,9.10
2014,06,25,08,39,9.10
2014,06,25,08,40,9.10
2014,06,25,08,41,9.10
2014,06,25,08,42,9.10
2014,06,25,08,43,9.10
2014,06,25,08,44,9.10
2014,06,25,08,45,9.10
2014,06,25,08,49,8.90
2014,06,25,08,50,8.90
2014,06,25,08,51,8.90
2014,06,25,08,52,8.90
2014,06,25,08,53,8.90
2014,06,25,08,54,8.90
2014,06,25,08,55,8.90
2014,06,25,08,56,8.90
2014,06,25,08,57,8.90
2014,06,25,08,58,8.90
2014,06,25,08,59,8.90
2014,06,25,09,00,8.90
2014,06,25,09,04,9.30
2014,06,25,09,05,9.30
2014,06,25,09,06,9.30
2014,06,25,09,07,9.30
2014,06,25,09,08,9.30
2014,06,25,09,09,9.30
2014,06,25,09,10,9.30
2014,06,25,09,11,9.30
2014,06,25,09,12,9.30
2014,06,25,09,13,9.30
2014,06,25,09,14,9.30
2014,06,25,09,15,9.30
2014,06,25,09,19,9.90
2014,06,25,09,20,9.90
2014,06,25,09,21,9.90
2014,06,25,09,22,9.90
2014,06,25,09,23,9.90
2014,06,25,09,24,9.90
2014,06,25,09,25,9.90
2014,06,25,09,26,9.90
2014,06,25,09,27,9.90
2014,06,25,09,28,9.90
2014,06,25,09,29,9.90
2014,06,25,09,30,9.90
2014,06,25,09,34,9.90
2014,06,25,09,35,9.90
2014,06,25,09,36,9.90
2014,06,25,09,37,9.90
2014,06,25,09,38,9.90
2014,06,25,09,39,9.90
2014,06,25,09,40,9.90
2014,06,25,09,41,9.90
2014,06,25,09,42,9.90
2014,06,25,09,43,9.90
2014,06,25,09,44,9.90
2014,06,25,09,45,9.90
2014,06,25,09,49,10.00
2014,06,25,09,50,10.00
2014,06,25,09,51,10.00
2014,06,25,09,52,10.00
2014,06,25,09,53,10.00
2014,06,25,09,54,10.00
2014,06,25,09,55,10.00
2014,06,25,09,56,10.00
2014,06,25,09,57,10.00
2014,06,25,09,58,10.00
2014,06,25,09,59,10.00
2014,06,25,10,00,10.00
2014,06,25,10,04,10.20
2014,06,25,10,05,10.20
2014,06,25,10,06,10.20
2014,06,25,10,07,10.20
2014,06,25,10,08,10.20
2014,06,25,10,09,10.20
2014,06,25,10,10,10.20
2014,06,25,10,11,10.20
2014,06,25,10,12,10.20
2014,06,25,10,13,10.20
2014,06,25,10,14,10.20
2014,06,25,10,15,10.20
2014,06,25,10,19,10.20
2014,06,25,10,20,10.20
2014,06,25,10,21,10.20
2014,06,25,10,22,10.20
2014,06,25,10,23,10.20
2014,06,25,10,24,10.20
2014,06,25,10,25,10.20
2014,06,25,10,26,10.20
2014,06,25,10,27,10.20
2014,06,25,10,28,10.20
2014,06,25,10,29,10.20
2014,06,25,10,30,10.20
2014,06,25,10,34,10.50
2014,06,25,10,35,10.50
2014,06,25,10,36,10.50
2014,06,25,10,37,10.50
2014,06,25,10,38,10.50
2014,06,25,10,39,10.50
2014,06,25,10,40,10.50
2014,06,25,10,41,10.50
2014,06,25,10,42,10.50
2014,06,25,10,43,10.50
2014,06,25,10,44,10.50
2014,06,25,10,45,10.50
2014,06,25,10,49,10.30
2014,06,25,10,50,10.30
2014,06,25,10,51,10.30
2014,06,25,10,52,10.30
2014,06,25,10,53,10.30
2014,06,25,10,54,10.30
2014,06,25,10,55,10.30
2014,06,25,10,56,10.30
2014,06,25,10,57,10.30
2014,06,25,10,58,10.30
2014,06,25,10,59,10.30
2014,06,25,11,00,10.30
2014,06,25,11,04,10.20
2014,06,25,11,05,10.20
2014,06,25,11,06,10.20
2014,06,25,11,07,10.20
2014,06,25,11,08,10.20
2014,06,25,11,09,10.20
2014,06,25,11,10,10.20
2014,06,25,11,11,10.20
2014,06,25,11,12,10.20
2014,06,25,11,13,10.20
2014,06,25,11,14,10.20
2014,06,25,11,15,10.20
2014,06,25,11,19,10.40
2014,06,25,11,20,10.40
2014,06,25,11,21,10.40
2014,06,25,11,22,10.40
2014,06,25,11,23,10.40
2014,06,25,11,24,10.40
2014,06,25,11,25,10.40
2014,06,25,11,26,10.40
2014,06,25,11,27,10.40
2014,06,25,11,28,10.40
2014,06,25,11,29,10.40
2014,06,25,11,30,10.40
2014,06,25,11,34,11.10
2014,06,25,11,35,11.10
2014,06,25,11,36,11.10
2014,06,25,11,37,11.10
2014,06,25,11,38,11.10
2014,06,25,11,39,11.10
2014,06,25,11,40,11.10
2014,06,25,11,41,11.10
2014,06,25,11,42,11.10
2014,06,25,11,43,11.10
2014,06,25,11,44,11.10
2014,06,25,11,45,11.10
2014,06,25,11,49,11.20
2014,06,25,11,50,11.20
2014,06,25,11,51,11.20
2014,06,25,11,52,11.20
2014,06,25,11,53,11.20
2014,06,25,11,54,11.20
2014,06,25,11,55,11.20
2014,06,25,11,56,11.20
2014,06,25,11,57,11.20
2014,06,25,11,58,11.20
2014,06,25,11,59,11.20
2014,06,25,12,00,11.20
2014,06,25,12,04,12.10
2014,06,25,12,05,12.10
2014,06,25,12,06,12.10
2014,06,25,12,07,12.10
2014,06,25,12,08,12.10
2014,06,25,12,09,12.10
2014,06,25,12,10,12.10
2014,06,25,12,11,12.10
2014,06,25,12,12,12.10
2014,06,25,12,13,12.10
2014,06,25,12,14,12.10
2014,06,25,12,15,12.10
2014,06,25,12,19,12.40
2014,06,25,12,20,12.40
2014,06,25,12,21,12.40
2014,06,25,12,22,12.40
2014,06,25,12,23,12.40
2014,06,25,12,24,12.40
2014,06,25,12,25,12.40
2014,06,25,12,26,12.40
2014,06,25,12,27,12.40
2014,06,25,12,28,12.40
2014,06,25,12,29,12.40
2014,06,25,12,30,12.40
2014,06,25,12,34,12.70
2014,06,25,12,35,12.70
2014,06,25,12,36,12.70
2014,06,25,12,37,12.70
2014,06,25,12,38,12.70
2014,06,25,12,39,12.70
2014,06,25,12,40,12.70
2014,06,25,12,41,12.70
2014,06,25,12,42,12.70
2014,06,25,12,43,12.70
2014,06,25,12,44,12.70
2014,06,25,12,45,12.70
2014,06,25,12,49,11.80
2014,06,25,12,50,11.80
2014,06,25,12,51,11.80
2014,06,25,12,52,11.80
2014,06,25,12,53,11.80
2014,06,25,12,54,11.80
2014,06,25,12,55,11.80
2014,06,25,12,56,11.80
2014,06,25,12,57,11.80
2014,06,25,12,58,11.80
2014,06,25,12,59,11.80
2014,06,25,13,00,11.80
2014,06,25,13,04,10.70
2014,06,25,13,05,10.70
2014,06,25,13,06,10.70
2014,06,25,13,07,10.70
2014,06,25,13,08,10.70
2014,06,25,13,09,10.70
2014,06,25,13,10,10.70
2014,06,25,13,11,10.70
2014,06,25,13,12,10.70
2014,06,25,13,13,10.70
2014,06,25,13,14,10.70
2014,06,25,13,15,10.70
2014,06,25,13,19,10.30
2014,06,25,13,20,10.30
2014,06,25,13,21,10.30
2014,06,25,13,22,10.30
2014,06,25,13,23,10.30
2014,06,25,13,24,10.30
2014,06,25,13,25,10.30
2014,06,25,13,26,10.30
2014,06,25,13,27,10.30
2014,06,25,13,28,10.30
2014,06,25,13,29,10.30
2014,06,25,13,30,10.30
2014,06,25,13,34,9.60
2014,06,25,13,35,9.60
2014,06,25,13,36,9.60
2014,06,25,13,37,9.60
2014,06,25,13,38,9.60
2014,06,25,13,39,9.60
2014,06,25,13,40,9.60
2014,06,25,13,41,9.60
2014,06,25,13,42,9.60
2014,06,25,13,43,9.60
2014,06,25,13,44,9.60
2014,06,25,13,45,9.60
2014,06,25,13,49,9.40
2014,06,25,13,50,9.40
2014,06,25,13,51,9.40
2014,06,25,13,52,9.40
2014,06,25,13,53,9.40
2014,06,25,13,54,9.40
2014,06,25,13,55,9.40
2014,06,25,13,56,9.40
2014,06,25,13,57,9.40
2014,06,25,13,58,9.40
2014,06,25,13,59,9.40
2014,06,25,14,00,9.40
2014,06,25,14,04,9.30
2014,06,25,14,05,9.30
2014,06,25,14,06,9.30
2014,06,25,14,07,9.30
2014,06,25,14,08,9.30
2014,06,25,14,09,9.30
2014,06,25,14,10,9.30
2014,06,25,14,11,9.30
2014,06,25,14,12,9.30
2014,06,25,14,13,9.30
2014,06,25,14,14,9.30
2014,06,25,14,15,9.30
2014,06,25,14,19,9.40
2014,06,25,14,20,9.40
2014,06,25,14,21,9.40
2014,06,25,14,22,9.40
2014,06,25,14,23,9.40
2014,06,25,14,24,9.40
2014,06,25,14,25,9.40
2014,06,25,14,26,9.40
2014,06,25,14,27,9.40
2014,06,25,14,28,9.40
2014,06,25,14,29,9.40
2014,06,25,14,30,9.40
2014,06,25,14,34,9.80
2014,06,25,14,35,9.80
2014,06,25,14,36,9.80
2014,06,25,14,37,9.80
2014,06,25,14,38,9.80
2014,06,25,14,39,9.80
2014,06,25,14,40,9.80
2014,06,25,14,41,9.80
2014,06,25,14,42,9.80
2014,06,25,14,43,9.80
2014,06,25,14,44,9.80
2014,06,25,14,45,9.80
2014,06,25,14,49,9.50
2014,06,25,14,50,9.50
2014,06,25,14,51,9.50
2014,06,25,14,52,9.50
2014,06,25,14,53,9.50
2014,06,25,14,54,9.50
2014,06,25,14,55,9.50
2014,06,25,14,56,9.50
2014,06,25,14,57,9.50
2014,06,25,14,58,9.50
2014,06,25,14,59,9.50
2014,06,25,15,00,9.50
2014,06,25,15,04,9.80
2014,06,25,15,05,9.80
2014,06,25,15,06,9.80
2014,06,25,15,07,9.80
2014,06,25,15,08,9.80
2014,06,25,15,09,9.80
2014,06,25,15,10,9.80
2014,06,25,15,11,9.80
2014,06,25,15,12,9.80
2014,06,25,15,13,9.80
2014,06,25,15,14,9.80
2014,06,25,15,15,9.80
2014,06,25,15,19,10.40
2014,06,25,15,20,10.40
2014,06,25,15,21,10.40
2014,06,25,15,22,10.40
2014,06,25,15,23,10.40
2014,06,25,15,24,10.40
2014,06,25,15,25,10.40
2014,06,25,15,26,10.40
2014,06,25,15,27,10.40
2014,06,25,15,28,10.40
2014,06,25,15,29,10.40
2014,06,25,15,30,10.40
2014,06,25,15,34,10.40
2014,06,25,15,35,10.40
2014,06,25,15,36,10.40
2014,06,25,15,37,10.40
2014,06,25,15,38,10.40
2014,06,25,15,39,10.40
2014,06,25,15,40,10.40
2014,06,25,15,41,10.40
2014,06,25,15,42,10.40
2014,06,25,15,43,10.40
2014,06,25,15,44,10.40
2014,06,25,15,45,10.40
2014,06,25,15,49,10.50
2014,06,25,15,50,10.50
2014,06,25,15,51,10.50
2014,06,25,15,52,10.50
2014,06,25,15,53,10.50
2014,06,25,15,54,10.50
2014,06,25,15,55,10.50
2014,06,25,15,56,10.50
2014,06,25,15,57,10.50
2014,06,25,15,58,10.50
2014,06,25,15,59,10.50
2014,06,25,16,00,10.50
2014,06,25,16,04,11.20
2014,06,25,16,05,11.20
2014,06,25,16,06,11.20
2014,06,25,16,07,11.20
2014,06,25,16,08,11.20
2014,06,25,16,09,11.20
2014,06,25,16,10,11.20
2014,06,25,16,11,11.20
2014,06,25,16,12,11.20
2014,06,25,16,13,11.20
2014,06,25,16,14,11.20
2014,06,25,16,15,11.20
2014,06,25,16,19,11.10
2014,06,25,16,20,11.10
2014,06,25,16,21,11.10
2014,06,25,16,22,11.10
2014,06,25,16,23,11.10
2014,06,25,16,24,11.10
2014,06,25,16,25,11.10
2014,06,25,16,26,11.10
2014,06,25,16,27,11.10
2014,06,25,16,28,11.10
2014,06,25,16,29,11.10
2014,06,25,16,30,11.10
2014,06,25,16,34,10.90
2014,06,25,16,35,10.90
2014,06,25,16,36,10.90
2014,06,25,16,37,10.90
2014,06,25,16,38,10.90
2014,06,25,16,39,10.90
2014,06,25,16,40,10.90
2014,06,25,16,41,10.90
2014,06,25,16,42,10.90
2014,06,25,16,43,10.90
2014,06,25,16,44,10.90
2014,06,25,16,45,10.90
2014,06,25,16,49,10.70
2014,06,25,16,50,10.70
2014,06,25,16,51,10.70
2014,06,25,16,52,10.70
2014,06,25,16,53,10.70
2014,06,25,16,54,10.70
2014,06,25,16,55,10.70
2014,06,25,16,56,10.70
2014,06,25,16,57,10.70
2014,06,25,16,58,10.70
2014,06,25,16,59,10.70
2014,06,25,17,00,10.70
2014,06,25,17,04,11.40
2014,06,25,17,05,11.40
2014,06,25,17,06,11.40
2014,06,25,17,07,11.40
2014,06,25,17,08,11.40
2014,06,25,17,09,11.40
2014,06,25,17,10,11.40
2014,06,25,17,11,11.40
2014,06,25,17,12,11.40
2014,06,25,17,13,11.40
2014,06,25,17,14,11.40
2014,06,25,17,15,11.40
2014,06,25,17,19,11.30
2014,06,25,17,20,11.30
2014,06,25,17,21,11.30
2014,06,25,17,22,11.30
2014,06,25,17,23,11.30
2014,06,25,17,24,11.30
2014,06,25,17,25,11.30
2014,06,25,17,26,11.30
2014,06,25,17,27,11.30
2014,06,25,17,28,11.30
2014,06,25,17,29,11.30
2014,06,25,17,30,11.30
2014,06,25,17,34,11.40
2014,06,25,17,35,11.40
2014,06,25,17,36,11.40
2014,06,25,17,37,11.40
2014,06,25,17,38,11.40
2014,06,25,17,39,11.40
2014,06,25,17,40,11.40
2014,06,25,17,41,11.40
2014,06,25,17,42,11.40
2014,06,25,17,43,11.40
2014,06,25,17,44,11.40
2014,06,25,17,45,11.40
2014,06,25,17,49,12.10
2014,06,25,17,50,12.10
2014,06,25,17,51,12.10
2014,06,25,17,52,12.10
2014,06,25,17,53,12.10
2014,06,25,17,54,12.10
2014,06,25,17,55,12.10
2014,06,25,17,56,12.10
2014,06,25,17,57,12.10
2014,06,25,17,58,12.10
2014,06,25,17,59,12.10
2014,06,25,18,00,12.10
2014,06,25,18,04,11.90
2014,06,25,18,05,11.90
2014,06,25,18,06,11.90
2014,06,25,18,07,11.90
2014,06,25,18,08,11.90
2014,06,25,18,09,11.90
2014,06,25,18,10,11.90
2014,06,25,18,11,11.90
2014,06,25,18,12,11.90
2014,06,25,18,13,11.90
2014,06,25,18,14,11.90
2014,06,25,18,15,11.90
2014,06,25,18,19,12.20
2014,06,25,18,20,12.20
2014,06,25,18,21,12.20
2014,06,25,18,22,12.20
2014,06,25,18,23,12.20
2014,06,25,18,24,12.20
2014,06,25,18,25,12.20
2014,06,25,18,26,12.20
2014,06,25,18,27,12.20
2014,06,25,18,28,12.20
2014,06,25,18,29,12.20
2014,06,25,18,30,12.20
2014,06,25,18,34,12.40
2014,06,25,18,35,12.40
2014,06,25,18,36,12.40
2014,06,25,18,37,12.40
2014,06,25,18,38,12.40
2014,06,25,18,39,12.40
2014,06,25,18,40,12.40
2014,06,25,18,41,12.40
2014,06,25,18,42,12.40
2014,06,25,18,43,12.40
2014,06,25,18,44,12.40
2014,06,25,18,45,12.40
2014,06,25,18,49,12.50
2014,06,25,18,50,12.50
2014,06,25,18,51,12.50
2014,06,25,18,52,12.50
2014,06,25,18,53,12.50
2014,06,25,18,54,12.50
2014,06,25,18,55,12.50
2014,06,25,18,56,12.50
2014,06,25,18,57,12.50
2014,06,25,18,58,12.50
2014,06,25,18,59,12.50
2014,06,25,19,00,12.50
2014,06,25,19,04,12.10
2014,06,25,19,05,12.10
2014,06,25,19,06,12.10
2014,06,25,19,07,12.10
2014,06,25,19,08,12.10
2014,06,25,19,09,12.10
2014,06,25,19,10,12.10
2014,06,25,19,11,12.10
2014,06,25,19,12,12.10
2014,06,25,19,13,12.10
2014,06,25,19,14,12.10
2014,06,25,19,15,12.10
2014,06,25,19,19,12.10
2014,06,25,19,20,12.10
2014,06,25,19,21,12.10
2014,06,25,19,22,12.10
2014,06,25,19,23,12.10
2014,06,25,19,24,12.10
2014,06,25,19,25,12.10
2014,06,25,19,26,12.10
2014,06,25,19,27,12.10
2014,06,25,19,28,12.10
2014,06,25,19,29,12.10
2014,06,25,19,30,12.10
2014,06,25,19,34,12.20
2014,06,25,19,35,12.20
2014,06,25,19,36,12.20
2014,06,25,19,37,12.20
2014,06,25,19,38,12.20
2014,06,25,19,39,12.20
2014,06,25,19,40,12.20
2014,06,25,19,41,12.20
2014,06,25,19,42,12.20
2014,06,25,19,43,12.20
2014,06,25,19,44,12.20
2014,06,25,19,45,12.20
2014,06,25,19,49,12.30
2014,06,25,19,50,12.30
2014,06,25,19,51,12.30
2014,06,25,19,52,12.30
2014,06,25,19,53,12.30
2014,06,25,19,54,12.30
2014,06,25,19,55,12.30
2014,06,25,19,56,12.30
2014,06,25,19,57,12.30
2014,06,25,19,58,12.30
2014,06,25,19,59,12.30
2014,06,25,20,00,12.30
2014,06,25,20,04,12.10
2014,06,25,20,05,12.10
2014,06,25,20,06,12.10
2014,06,25,20,07,12.10
2014,06,25,20,08,12.10
2014,06,25,20,09,12.10
2014,06,25,20,10,12.10
2014,06,25,20,11,12.10
2014,06,25,20,12,12.10
2014,06,25,20,13,12.10
2014,06,25,20,14,12.10
2014,06,25,20,15,12.10
2014,06,25,20,19,11.80
2014,06,25,20,20,11.80
2014,06,25,20,21,11.80
2014,06,25,20,22,11.80
2014,06,25,20,23,11.80
2014,06,25,20,24,11.80
2014,06,25,20,25,11.80
2014,06,25,20,26,11.80
2014,06,25,20,27,11.80
2014,06,25,20,28,11.80
2014,06,25,20,29,11.80
2014,06,25,20,30,11.80
2014,06,25,20,34,11.40
2014,06,25,20,35,11.40
2014,06,25,20,36,11.40
2014,06,25,20,37,11.40
2014,06,25,20,38,11.40
2014,06,25,20,39,11.40
2014,06,25,20,40,11.40
2014,06,25,20,41,11.40
2014,06,25,20,42,11.40
2014,06,25,20,43,11.40
2014,06,25,20,44,11.40
2014,06,25,20,45,11.40
2014,06,25,20,49,11.10
2014,06,25,20,50,11.10
2014,06,25,20,51,11.10
2014,06,25,20,52,11.10
2014,06,25,20,53,11.10
2014,06,25,20,54,11.10
2014,06,25,20,55,11.10
2014,06,25,20,56,11.10
2014,06,25,20,57,11.10
2014,06,25,20,58,11.10
2014,06,25,20,59,11.10
2014,06,25,21,00,11.10
2014,06,25,21,04,10.80
2014,06,25,21,05,10.80
2014,06,25,21,06,10.80
2014,06,25,21,07,10.80
2014,06,25,21,08,10.80
2014,06,25,21,09,10.80
2014,06,25,21,10,10.80
2014,06,25,21,11,10.80
2014,06,25,21,12,10.80
2014,06,25,21,13,10.80
2014,06,25,21,14,10.80
2014,06,25,21,15,10.80
2014,06,25,21,19,10.50
2014,06,25,21,20,10.50
2014,06,25,21,21,10.50
2014,06,25,21,22,10.50
2014,06,25,21,23,10.50
2014,06,25,21,24,10.50
2014,06,25,21,25,10.50
2014,06,25,21,26,10.50
2014,06,25,21,27,10.50
2014,06,25,21,28,10.50
2014,06,25,21,29,10.50
2014,06,25,21,30,10.50
2014,06,25,21,34,10.20
2014,06,25,21,35,10.20
2014,06,25,21,36,10.20
2014,06,25,21,37,10.20
2014,06,25,21,38,10.20
2014,06,25,21,39,10.20
2014,06,25,21,40,10.20
2014,06,25,21,41,10.20
2014,06,25,21,42,10.20
2014,06,25,21,43,10.20
2014,06,25,21,44,10.20
2014,06,25,21,45,10.20
2014,06,25,21,49,10.20
2014,06,25,21,50,10.20
2014,06,25,21,51,10.20
2014,06,25,21,52,10.20
2014,06,25,21,53,10.20
2014,06,25,21,54,10.20
2014,06,25,21,55,10.20
2014,06,25,21,56,10.20
2014,06,25,21,57,10.20
2014,06,25,21,58,10.20
2014,06,25,21,59,10.20
2014,06,25,22,00,10.20
2014,06,25,22,04,10.10
2014,06,25,22,05,10.10
2014,06,25,22,06,10.10
2014,06,25,22,07,10.10
2014,06,25,22,08,10.10
2014,06,25,22,09,10.10
2014,06,25,22,10,10.10
2014,06,25,22,11,10.10
2014,06,25,22,12,10.10
2014,06,25,22,13,10.10
2014,06,25,22,14,10.10
2014,06,25,22,15,10.10
2014,06,25,22,19,9.80
2014,06,25,22,20,9.80
2014,06,25,22,21,9.80
2014,06,25,22,22,9.80
2014,06,25,22,23,9.80
2014,06,25,22,24,9.80
2014,06,25,22,25,9.80
2014,06,25,22,26,9.80
2014,06,25,22,27,9.80
2014,06,25,22,28,9.80
2014,06,25,22,29,9.80
2014,06,25,22,30,9.80
2014,06,25,22,34,9.80
2014,06,25,22,35,9.80
2014,06,25,22,36,9.80
2014,06,25,22,37,9.80
2014,06,25,22,38,9.80
2014,06,25,22,39,9.80
2014,06,25,22,40,9.80
2014,06,25,22,41,9.80
2014,06,25,22,42,9.80
2014,06,25,22,43,9.80
2014,06,25,22,44,9.80
2014,06,25,22,45,9.80
2014,06,25,22,49,9.90
2014,06,25,22,50,9.90
2014,06,25,22,51,9.90
2014,06,25,22,52,9.90
2014,06,25,22,53,9.90
2014,06,25,22,54,9.90
2014,06,25,22,55,9.90
2014,06,25,22,56,9.90
2014,06,25,22,57,9.90
2014,06,25,22,58,9.90
2014,06,25,22,59,9.90
2014,06,25,23,00,9.90
2014,06,25,23,04,9.90
2014,06,25,23,05,9.90
2014,06,25,23,06,9.90
2014,06,25,23,07,9.90
2014,06,25,23,08,9.90
2014,06,25,23,09,9.90
2014,06,25,23,10,9.90
2014,06,25,23,11,9.90
2014,06,25,23,12,9.90
2014,06,25,23,13,9.90
2014,06,25,23,14,9.90
2014,06,25,23,15,9.90
2014,06,25,23,19,10.10
2014,06,25,23,20,10.10
2014,06,25,23,21,10.10
2014,06,25,23,22,10.10
2014,06,25,23,23,10.10
2014,06,25,23,24,10.10
2014,06,25,23,25,10.10
2014,06,25,23,26,10.10
2014,06,25,23,27,10.10
2014,06,25,23,28,10.10
2014,06,25,23,29,10.10
2014,06,25,23,30,10.10
2014,06,25,23,34,10.20
2014,06,25,23,35,10.20
2014,06,25,23,36,10.20
2014,06,25,23,37,10.20
2014,06,25,23,38,10.20
2014,06,25,23,39,10.20
2014,06,25,23,40,10.20
2014,06,25,23,41,10.20
2014,06,25,23,42,10.20
2014,06,25,23,43,10.20
2014,06,25,23,44,10.20
2014,06,25,23,45,10.20
2014,06,25,23,49,10.20
2014,06,25,23,50,10.20
2014,06,25,23,51,10.20
2014,06,25,23,52,10.20
2014,06,25,23,53,10.20
2014,06,25,23,54,10.20
2014,06,25,23,55,10.20
2014,06,25,23,56,10.20
2014,06,25,23,57,10.20
2014,06,25,23,58,10.20
2014,06,25,23,59,10.20
